Temperature
14 14 13 13 13 13 13 13 13 13 13 13 13 13 13 12 12 12 12 12 12 12 12 12 11 11 11 11 11 11 11 11 11 11 10 10 10 10 10 10 10 10 10
13 13 13 13 13 13 13 12 12 12 12 12 12 12 12 12 12 12 12 12 12 11 11 11 11 11 11 11 11 11 11 11 11 10 10 10 10 10 10 10 10 10 10
13 13 13 13 13 12 12 12 12 12 12 12 12 12 12 12 12 11 11 11 11 11 11 11 11 11 11 11 11 11 10 10 10 10 10 10 10 10 10 10 10 10 10
13 12 12 12 12 12 12 12 11 11 11 11 11 11 11 11 11 11 11 11 11 11 11 11 11 11 11 10 11 10 10 10 10 10 10 9 9 9 9 9 9 9 9
12 12 12 12 12 12 11 11 11 11 11 11 11 11 11 11 11 11 11 11 11 11 11 11 11 10 10 10 10 10 10 10 10 9 9 9 9 9 9 9 9 9 9
12 12 12 12 11 11 11 11 11 11 11 11 11 11 11 11 11 11 11 11 11 10 10 10 10 10 10 10 10 10 10 10 9 9 9 9 9 9 9 9 8 8 8
11 11 11 11 11 11 11 11 10 10 10 10 10 10 10 10 10 10 10 10 10 10 10 10 10 10 10 10 10 10 9 9 9 9 9 9 9 9 9 8 8 8 8
11 11 11 11 11 10 10 10 10 10 10 10 10 10 10 10 10 10 10 10 10 10 10 10 10 10 9 9 9 9 9 9 9 9 9 9 8 8 8 8 8 8 8
10 10 10 10 10 10 10 10 10 9 9 9 9 9 9 9 9 9 9 9 9 9 9 9 9 9 9 9 9 9 8 9 9 9 8 8 8 8 8 8 8 7 7
10 10 10 10 10 10 9 9 9 9 9 9 9 9 9 9 9 9 9 9 9 9 9 9 9 9 9 8 8 8 8 8 8 8 8 8 8 8 8 7 7 7 7
9 9 9 9 9 9 9 9 9 9 8 8 8 9 9 8 8 8 8 8 8 8 8 8 8 8 8 8 8 8 8 8 7 7 7 7 7 7 7 7 7 7 7
9 9 9 9 9 9 9 8 8 8 8 8 8 8 8 8 8 8 8 8 8 8 8 8 8 8 8 8 8 8 7 7 7 7 7 7 7 7 7 7 7 6 6
8 8 8 8 8 8 8 8 8 8 8 8 8 8 8 8 8 8 8 8 7 7 8 8 8 8 8 7 7 7 7 7 6 6 6 6 6 6 6 6 6 6 6
8 8 8 8 8 8 8 8 7 7 7 7 7 7 7 7 7 7 7 7 7 7 7 7 7 7 7 7 7 6 6 6 6 6 6 6 6 6 6 6 6 6 5
8 7 7 7 7 7 7 7 7 7 7 7 7 7 6 7 7 7 7 7 7 7 7 6 6 6 6 6 6 6 6 6 5 5 5 5 5 5 5 5 5 5 5
7 7 7 7 7 7 7 7 7 7 7 7 7 6 6 7 7 7 7 7 7 6 6 6 6 5 5 5 5 5 5 5 5 5 5 5 5 5 4 4 4 4 4
7 7 7 6 6 6 6 6 6 6 6 6 6 6 6 7 7 7 7 6 6 6 6 5 5 5 5 5 5 5 5 5 5 4 4 4 4 4 4 4 4 4 4
7 7 6 6 6 6 6 6 6 6 6 6 6 6 6 6 6 6 6 6 5 5 5 5 5 5 4 4 4 4 4 4 4 4 4 4 4 3 3 3 3 3 3
6 6 6 6 6 6 6 6 6 6 5 5 5 5 6 5 5 5 5 5 5 5 4 4 4 4 4 4 4 4 4 4 3 3 3 3 3 3 3 3 3 3 2
6 6 6 6 5 5 5 5 5 5 5 5 5 5 5 5 5 5 5 5 4 4 4 4 4 4 4 3 3 3 3 3 3 3 3 3 3 2 2 2 2 2 2
5 5 5 5 5 5 5 5 5 5 5 5 5 5 5 5 5 4 4 4 4 4 4 3 3 3 3 3 3 3 3 3 2 2 2 2 2 2 2 2 2 1 1
5 5 5 5 5 5 5 5 5 5 4 4 4 4 4 4 4 4 4 4 3 3 3 3 3 3 3 2 2 2 2 2 2 2 2 2 2 2 1 1 1 1 1
5 5 4 4 4 4 4 4 4 4 4 4 4 4 4 4 3 3 3 3 3 3 3 2 2 2 2 2 2 2 2 1 1 1 1 1 1 1 1 1 1 1 1
5 4 4 4 4 4 4 4 4 4 4 4 4 4 3 3 3 3 3 3 2 2 2 2 2 2 2 2 1 1 1 1 1 1 1 1 1 1 0 0 -0 -0 0
4 4 4 4 4 4 3 3 3 3 3 3 3 3 3 3 3 2 2 2 2 2 2 2 1 1 1 1 1 1 1 1 1 1 0 0 0 0 -0 -0 -0 -0 -0
4 4 4 4 4 3 3 3 3 3 3 3 3 3 2 2 2 2 2 1 1 1 1 1 1 1 1 1 1 0 0 0 0 0 -0 -0 -0 -0 -1 -1 -1 -1 -1
Wind_Speed
4 5 5 5 5 5 4 5 5 5 5 5 6 6 6 5 5 5 5 5 5 5 5 5 5 4 4 4 4 4 4 4 5 4 3 2 2 2 1 2 1 1 2
3 4 5 5 5 5 5 5 4 5 5 6 5 6 6 6 6 6 6 6 6 6 6 6 5 4 5 4 4 4 4 4 5 5 4 3 3 3 2 2 2 2 2
3 4 5 5 5 5 5 5 5 5 5 5 5 6 6 6 6 6 6 6 7 7 6 6 6 5 5 4 5 4 4 4 4 4 4 3 3 2 2 3 3 3 3
2 4 4 5 5 5 5 5 5 5 6 5 6 6 6 6 6 6 6 6 6 6 6 6 6 6 6 5 5 5 4 4 4 4 4 4 3 2 3 3 3 3 4
3 4 4 4 5 5 5 5 5 4 5 5 5 5 6 5 5 6 6 6 6 6 6 6 6 5 5 5 4 4 4 4 4 4 4 4 4 3 3 4 4 3 4
4 4 4 4 5 5 5 5 4 4 4 4 5 5 5 4 2 3 4 6 6 6 6 6 5 5 6 6 5 4 4 5 5 5 5 5 5 5 4 4 4 4 4
4 4 4 5 5 5 5 4 4 4 4 5 5 5 4 3 2 3 5 5 6 6 6 5 5 5 5 6 6 7 7 6 6 7 7 6 6 5 5 5 5 5 5
4 4 4 5 5 5 5 4 5 4 4 4 5 5 4 3 3 3 4 6 6 6 6 6 5 5 4 5 5 6 6 6 6 6 6 6 5 5 5 6 6 5 5
4 4 5 5 5 5 5 5 5 5 4 4 5 5 5 4 3 4 4 5 5 5 5 5 5 5 3 4 5 6 6 5 4 5 5 4 3 3 4 4 4 4 4
4 5 5 5 5 6 6 5 5 5 5 5 5 5 5 5 3 4 6 5 5 4 4 4 3 4 2 4 6 6 6 6 5 4 5 5 5 5 5 6 5 5 4
4 4 4 4 5 5 5 5 5 5 5 5 5 5 5 4 4 4 5 5 5 4 4 3 3 2 2 4 5 5 5 5 5 4 4 4 3 4 5 5 5 5 6
3 3 3 4 4 4 5 5 5 5 5 5 5 4 4 4 3 4 5 5 5 5 4 3 2 1 3 4 5 4 4 5 4 3 4 4 4 4 4 5 6 6 7
3 3 3 3 3 4 5 5 5 5 5 4 4 4 3 3 3 4 5 5 5 5 4 2 3 3 4 4 4 4 5 4 4 4 4 4 4 4 3 3 4 4 5
3 3 3 3 3 4 4 4 4 5 5 5 5 5 4 4 3 3 3 4 4 4 3 3 3 4 4 3 3 3 4 3 4 4 4 4 3 3 3 3 3 3 4
3 4 4 3 3 3 4 3 5 4 4 5 5 5 5 5 3 3 3 3 3 3 2 2 2 2 2 2 3 3 3 3 3 3 3 3 3 3 3 3 3 3 4
3 3 3 3 3 3 3 3 2 3 3 4 4 5 4 3 3 3 3 2 2 3 3 3 2 3 3 3 3 3 3 3 3 3 3 3 4 3 3 3 4 4 4
3 3 3 3 3 3 3 3 3 2 2 3 3 3 4 2 3 4 4 3 3 4 3 3 3 3 2 2 2 3 3 3 3 3 3 3 4 4 4 4 4 4 4
4 3 4 3 3 3 3 4 4 4 3 3 3 3 3 2 3 3 3 3 3 3 3 3 3 2 2 2 2 2 3 3 3 3 3 4 4 4 4 4 4 4 4
4 3 3 3 3 3 3 3 3 4 3 3 2 2 3 3 3 3 4 3 3 3 2 2 2 2 2 2 2 2 3 3 3 3 3 3 4 4 4 4 4 4 3
3 3 4 3 3 3 3 3 3 3 3 3 3 2 2 2 2 3 3 3 3 3 2 2 2 2 2 2 2 2 2 3 3 3 3 3 3 3 3 4 4 3 3
3 3 4 4 3 3 3 3 3 3 3 3 3 2 3 3 3 4 4 3 3 3 3 3 2 2 2 2 2 2 3 3 3 3 3 3 3 3 3 3 3 3 3
3 3 3 3 3 3 3 3 3 3 3 3 2 1 3 3 3 3 3 3 3 3 2 2 2 2 2 2 2 2 2 3 3 3 3 3 3 3 3 3 3 3 3
4 3 4 4 4 3 3 3 3 3 2 2 2 1 2 2 3 2 2 2 2 2 2 2 2 2 1 1 2 2 3 3 3 3 3 3 3 3 3 3 3 3 3
4 4 4 4 4 4 4 3 3 3 3 2 2 2 2 2 2 2 2 1 2 2 1 1 2 2 2 1 1 2 3 3 3 3 3 3 3 2 3 3 3 3 3
4 4 4 4 4 4 4 4 3 3 3 3 2 2 1 1 1 1 1 1 1 1 1 1 1 1 2 2 1 1 1 2 2 2 2 2 2 2 2 3 2 2 2
4 4 4 4 4 4 4 4 4 3 3 2 2 2 2 1 1 1 1 1 1 1 1 1 2 2 2 1 1 0 1 1 1 2 2 1 1 1 2 2 2 2 2
Wind_Direction
209 209 206 208 213 215 214 221 223 222 220 222 221 220 221 223 223 223 229 228 235 236 232 239 240 239 240 240 238 244 250 255 264 274 268 253 248 262 237 253 251 228 182
220 212 206 208 208 214 216 221 223 221 222 223 221 223 224 224 224 228 232 232 236 241 239 239 240 231 237 240 236 241 244 251 257 264 262 254 257 259 260 246 243 239 239
221 216 212 209 211 217 221 219 218 220 220 219 217 222 226 227 227 232 235 238 239 241 241 241 241 235 236 235 233 238 242 246 251 254 260 260 256 245 256 253 247 245 245
229 222 218 215 215 220 223 222 223 224 223 222 222 223 231 233 232 234 238 240 240 241 240 242 241 239 241 238 237 240 242 243 243 244 250 248 245 243 244 246 251 241 245
241 232 225 219 216 217 220 219 221 226 231 229 228 228 232 232 234 236 236 240 240 241 241 240 240 243 254 252 252 249 244 244 241 241 244 248 244 233 239 243 252 253 244
251 243 229 222 218 217 216 216 218 219 228 229 230 232 233 231 212 247 252 241 243 243 243 244 239 230 231 233 242 254 257 249 245 241 244 247 248 242 241 244 247 252 254
260 253 238 226 220 217 213 210 215 220 225 231 232 234 237 229 193 227 245 244 243 245 247 246 244 243 238 242 228 228 237 245 254 255 250 251 256 249 240 239 241 252 260
261 258 251 231 223 219 216 214 221 226 227 232 233 233 240 242 214 227 242 240 243 244 244 244 245 247 244 246 245 242 243 242 240 246 255 261 265 256 243 243 243 246 255
256 257 254 240 225 223 221 220 223 227 229 234 235 232 237 240 217 230 241 241 245 248 249 249 249 248 237 235 243 244 246 247 236 241 267 275 282 265 250 239 234 229 245
270 265 260 248 228 225 226 224 225 228 230 234 237 233 233 241 220 226 236 240 246 249 252 252 247 252 249 231 240 242 247 253 251 241 242 246 245 230 222 232 231 233 244
281 277 267 256 237 227 223 220 220 227 235 237 238 236 236 240 221 214 232 242 244 248 250 252 249 200 242 241 251 251 259 267 257 251 248 246 239 235 228 232 236 237 240
283 276 267 259 243 225 219 221 223 223 229 238 239 239 241 239 235 212 218 246 263 247 248 249 250 198 241 250 249 258 265 265 258 250 248 248 246 244 242 238 239 244 251
278 278 272 262 249 230 221 217 221 224 225 233 237 241 244 244 231 206 213 233 252 247 249 254 251 234 238 243 241 243 242 246 245 247 248 253 256 253 247 247 248 249 254
279 275 267 255 251 238 226 224 222 225 227 233 237 239 240 237 238 231 227 230 234 241 243 224 218 220 234 248 248 238 242 246 245 249 256 261 264 256 246 245 252 251 250
272 269 265 255 252 251 237 235 235 237 240 240 238 239 237 236 238 251 241 234 240 245 243 235 235 235 244 254 256 251 249 246 245 252 254 254 255 254 256 253 249 248 254
267 270 266 255 245 245 243 231 217 238 262 266 267 264 251 247 230 208 215 218 219 218 221 219 229 238 245 255 262 264 262 257 258 256 254 253 250 247 252 257 249 248 252
262 266 260 255 243 237 239 237 238 235 224 235 236 248 257 230 196 195 192 186 188 193 211 225 231 240 252 264 269 270 274 272 266 258 256 256 255 255 254 253 252 247 251
260 263 260 252 244 238 238 240 236 239 245 240 212 211 221 196 187 188 180 175 187 198 227 239 243 244 249 255 269 278 281 282 273 263 259 260 257 255 257 255 253 252 255
264 264 259 255 245 239 237 236 235 232 238 238 233 203 192 186 175 169 175 195 204 216 232 243 252 256 256 261 266 272 275 275 276 276 271 265 262 262 262 264 260 252 258
256 269 268 255 245 240 235 233 235 233 229 230 232 230 196 186 192 183 192 209 214 219 231 243 250 250 247 252 262 273 275 273 273 277 284 282 277 269 264 266 258 247 251
249 246 250 253 248 244 240 238 240 237 233 233 233 222 204 204 202 199 202 212 219 220 224 232 239 245 248 254 257 264 272 275 277 278 279 281 281 279 270 263 256 251 249
245 244 246 247 247 246 249 249 245 234 227 230 235 203 184 206 207 206 205 213 224 229 225 227 227 230 234 239 247 255 264 271 275 280 280 278 276 276 279 276 255 248 250
239 240 244 247 244 242 242 240 233 231 229 227 222 215 208 210 206 207 207 211 216 210 212 214 217 219 232 250 259 258 258 260 263 270 272 272 274 274 273 272 264 250 250
238 238 240 241 238 239 241 235 228 226 222 215 213 216 213 210 211 212 209 205 201 196 195 204 209 206 208 228 259 271 282 293 285 263 260 263 270 273 272 274 276 260 255
238 241 241 237 236 241 240 234 227 221 215 208 200 192 195 198 200 204 204 184 186 187 182 179 183 191 197 207 232 278 329 330 311 291 260 252 258 271 269 273 277 276 266
235 236 236 233 232 234 235 231 223 214 207 204 200 192 190 195 197 198 200 184 176 174 173 170 170 175 192 207 196 57 36 352 315 305 278 242 242 263 276 272 272 274 277
Height
1510 1512 1512 1513 1515 1516 1516 1517 1518 1519 1520 1521 1521 1522 1522 1523 1524 1524 1524 1524 1525 1525 1525 1525 1525 1525 1524 1524 1523 1523 1523 1523 1522 1521 1521 1520 1519 1519 1518 1517 1517 1516 1516
1508 1509 1509 1510 1511 1512 1513 1514 1515 1516 1516 1517 1518 1518 1519 1520 1520 1521 1521 1521 1521 1522 1522 1522 1522 1521 1521 1521 1520 1520 1520 1520 1520 1518 1518 1517 1516 1516 1515 1515 1514 1514 1514
1505 1505 1506 1507 1508 1509 1510 1511 1511 1512 1513 1513 1514 1515 1515 1516 1517 1517 1518 1518 1518 1518 1518 1519 1518 1518 1518 1518 1517 1517 1517 1516 1516 1516 1515 1514 1513 1513 1512 1512 1512 1511 1511
1502 1502 1503 1504 1504 1505 1506 1507 1508 1509 1510 1510 1511 1511 1512 1512 1513 1514 1514 1514 1515 1515 1515 1515 1515 1515 1515 1514 1514 1514 1514 1513 1513 1512 1511 1511 1510 1509 1509 1509 1509 1508 1508
1499 1500 1500 1501 1501 1502 1503 1503 1504 1505 1506 1507 1507 1508 1508 1509 1509 1509 1510 1510 1511 1511 1511 1511 1511 1511 1511 1511 1511 1510 1510 1510 1509 1509 1508 1508 1507 1506 1506 1506 1506 1506 1505
1497 1497 1497 1498 1498 1498 1499 1500 1501 1501 1502 1503 1504 1504 1504 1505 1505 1505 1506 1506 1507 1507 1507 1507 1507 1507 1507 1507 1506 1506 1506 1506 1506 1505 1505 1504 1504 1503 1503 1503 1503 1503 1502
1494 1494 1494 1494 1495 1495 1496 1497 1497 1498 1499 1499 1500 1500 1500 1501 1501 1501 1502 1502 1503 1503 1503 1503 1503 1503 1503 1503 1502 1502 1502 1502 1502 1502 1501 1501 1500 1500 1499 1499 1499 1499 1499
1490 1490 1491 1491 1491 1492 1492 1493 1493 1495 1495 1495 1496 1496 1496 1496 1497 1497 1498 1499 1499 1499 1499 1499 1499 1499 1498 1498 1498 1498 1497 1497 1497 1497 1497 1497 1496 1496 1496 1495 1495 1495 1495
1487 1487 1487 1487 1487 1488 1488 1489 1490 1491 1491 1491 1492 1492 1492 1492 1493 1493 1493 1494 1494 1494 1494 1494 1494 1495 1494 1494 1494 1493 1493 1493 1492 1492 1492 1491 1491 1491 1491 1491 1491 1491 1491
1484 1484 1484 1484 1484 1484 1485 1485 1486 1487 1487 1488 1488 1488 1488 1489 1489 1489 1489 1490 1490 1490 1490 1490 1490 1490 1490 1489 1489 1489 1489 1489 1488 1488 1487 1487 1487 1486 1486 1487 1487 1487 1487
1481 1480 1480 1480 1480 1480 1481 1481 1482 1483 1483 1484 1484 1484 1485 1485 1485 1486 1485 1485 1486 1485 1485 1485 1485 1485 1485 1485 1485 1485 1485 1485 1484 1484 1483 1482 1482 1482 1482 1482 1482 1483 1483
1477 1477 1476 1476 1476 1477 1477 1477 1478 1479 1479 1480 1480 1480 1480 1481 1481 1481 1481 1481 1481 1481 1481 1481 1481 1481 1481 1481 1481 1480 1481 1480 1480 1479 1479 1478 1478 1478 1477 1478 1477 1478 1478
1474 1474 1473 1473 1473 1473 1474 1474 1475 1475 1475 1476 1476 1476 1476 1477 1477 1477 1477 1477 1477 1477 1477 1477 1477 1477 1477 1477 1476 1476 1476 1476 1475 1475 1475 1474 1474 1474 1473 1473 1473 1473 1473
1471 1471 1470 1470 1470 1470 1470 1470 1471 1471 1471 1471 1472 1472 1473 1473 1473 1473 1473 1473 1473 1473 1473 1473 1473 1473 1473 1472 1472 1472 1472 1472 1471 1471 1471 1471 1470 1470 1469 1469 1469 1469 1469
1469 1468 1467 1467 1466 1466 1466 1466 1466 1467 1467 1467 1468 1468 1469 1468 1468 1469 1469 1469 1469 1469 1469 1469 1469 1469 1469 1469 1468 1468 1468 1468 1467 1467 1467 1467 1466 1466 1465 1465 1465 1465 1465
1466 1465 1464 1463 1463 1463 1462 1463 1462 1463 1463 1463 1464 1464 1464 1465 1465 1465 1465 1465 1466 1466 1466 1465 1465 1465 1465 1465 1465 1464 1464 1464 1463 1463 1463 1463 1463 1462 1461 1461 1461 1461 1460
1463 1462 1461 1460 1460 1459 1459 1459 1459 1459 1459 1459 1459 1460 1460 1460 1461 1461 1461 1462 1462 1462 1462 1462 1462 1462 1462 1461 1461 1461 1461 1461 1460 1460 1459 1459 1459 1458 1458 1457 1457 1456 1456
1459 1459 1458 1457 1456 1456 1456 1455 1455 1455 1455 1455 1455 1456 1456 1456 1457 1457 1457 1458 1458 1458 1458 1458 1458 1458 1458 1458 1458 1458 1457 1457 1457 1456 1456 1455 1455 1455 1454 1454 1453 1452 1452
1456 1455 1454 1454 1453 1453 1452 1452 1452 1452 1452 1452 1452 1452 1452 1452 1453 1453 1453 1454 1453 1454 1454 1455 1455 1455 1455 1455 1455 1454 1454 1454 1453 1453 1452 1452 1451 1451 1450 1450 1449 1448 1448
1452 1451 1451 1450 1449 1449 1449 1448 1448 1448 1448 1448 1448 1448 1448 1449 1449 1449 1449 1450 1450 1450 1451 1451 1451 1451 1451 1451 1451 1451 1450 1450 1450 1449 1449 1448 1447 1447 1446 1445 1445 1445 1445
1449 1448 1447 1446 1446 1446 1445 1445 1445 1445 1445 1445 1445 1445 1445 1445 1445 1445 1446 1446 1446 1447 1447 1448 1448 1448 1448 1447 1447 1447 1447 1446 1446 1446 1445 1444 1444 1443 1442 1442 1441 1441 1441
1445 1444 1444 1443 1443 1442 1442 1442 1441 1441 1442 1441 1441 1442 1441 1442 1442 1442 1442 1443 1443 1443 1444 1444 1444 1444 1444 1444 1444 1444 1444 1443 1443 1442 1441 1441 1440 1439 1438 1438 1438 1438 1437
1441 1440 1440 1440 1439 1439 1438 1438 1438 1438 1438 1438 1438 1438 1438 1438 1439 1439 1439 1439 1440 1440 1440 1440 1440 1440 1441 1441 1441 1441 1440 1440 1439 1439 1438 1437 1436 1436 1435 1434 1434 1434 1433
1436 1436 1436 1435 1435 1435 1435 1434 1435 1435 1435 1435 1435 1435 1436 1436 1436 1436 1436 1436 1437 1437 1437 1437 1437 1437 1437 1437 1437 1437 1437 1437 1436 1435 1435 1434 1433 1433 1432 1432 1431 1431 1430
1432 1432 1432 1431 1431 1431 1431 1431 1431 1431 1431 1432 1432 1432 1432 1433 1433 1433 1433 1434 1434 1434 1434 1434 1434 1434 1434 1434 1434 1434 1434 1434 1433 1432 1431 1431 1430 1430 1429 1429 1428 1428 1427
1428 1428 1427 1427 1427 1427 1427 1428 1428 1428 1428 1428 1429 1429 1429 1430 1430 1430 1431 1431 1431 1431 1431 1431 1431 1431 1431 1431 1431 1431 1431 1430 1430 1429 1429 1428 1427 1427 1426 1426 1426 1425 1425